Location: Chervonnoye
(48.6000°N, 34.4000°E)
Time: 21:10:03
(UTC+00:00)

BEESAT 3 - Visible Passes

Search period start: 05 December 2021 00:00
Search period end: 15 December 2021 00:00
Orbit: 477 x 511 km, 64.9° (Epoch: 05 December)

Date Brightness Start Highest point End Pass type
(mag) Time Alt. Az. Time Alt. Az. Time Alt. Az.
06 Dec ? 16:12:29 10° S 16:13:46 19° S 16:13:46 19° S visible
07 Dec ? 15:50:00 10° S 15:52:28 28° SSE 15:52:28 28° SSE visible
08 Dec ? 15:27:31 10° S 15:30:48 29° ESE 15:31:03 28° ESE visible
08 Dec ? 17:04:23 10° WSW 17:05:37 18° W 17:05:37 18° W visible
09 Dec ? 15:05:03 10° S 15:08:12 25° ESE 15:09:32 21° E visible
09 Dec ? 16:41:38 10° WSW 16:44:07 31° W 16:44:07 31° W visible
10 Dec ? 14:42:37 10° SSE 14:45:36 22° ESE 14:47:57 13° ENE visible
10 Dec ? 16:18:54 10° WSW 16:22:31 44° NW 16:22:31 44° NW visible
11 Dec ? 14:20:11 10° SSE 14:22:59 20° ESE 14:25:49 10° ENE visible
11 Dec ? 15:56:10 10° WSW 15:59:52 49° NW 16:00:50 38° N visible
12 Dec ? 15:33:26 10° SW 15:37:11 55° NW 15:39:05 26° NNE visible
12 Dec ? 17:13:14 10° WNW 17:13:38 11° NW 17:13:38 11° NW visible
13 Dec ? 15:10:43 10° SW 15:14:29 63° NW 15:17:16 17° NNE visible
13 Dec ? 16:50:16 10° WNW 16:51:49 14° NW 16:51:49 14° NW visible
14 Dec ? 14:48:00 10° SW 14:51:47 71° NW 14:55:24 11° NE visible
14 Dec ? 16:27:19 10° WNW 16:29:39 15° NNW 16:29:57 15° NNW visible
